If you wish to contribute or participate in the discussions about articles you are invited to join SKYbrary as a registered user

 Actions

Tromso/Langnes

From SKYbrary Wiki

ENTC
Airport
ICAO: ENTC
Summary
Name Tromso/Langnes
Region Europe
Territory Norway NO.gif
Location Tromso, Norway
Serving
Coordinates 69° 40' 54.00" N, 18° 55' 6.00" E
Runways
Designator Length Width Surface ROPS
1/19 2392 m7,847.769 ft
45 m147.638 ft
ASP yes/yes


METAR
Observation ENTC 191150Z 08005KT 030V140 7000 -SHSN VV013 M05/M09 Q0990 TEMPO 3000 -SN VV008 RMK WIND 2600FT 10018KT
Station Tromso / Langnes
Date/Time 19 February 2019 11:50:00
Wind direction 80°
Wind speed 05 kts
Lowest cloud amount n/a
Temperature
Dew point
Humidity 73%
QNH 990 hPa
Weather condition n/a


Tromsø Airport

ICAO: ENTC IATA: TOS

Description

International airport serving city of Tromso in northern Norway.

Climatology

Borderline Subpolar Oceanic/Continental subarctic climate (because of winter temperatures) (Köppen climate classification Cfc/Dfc) - uniform precipitation distribution, temperatures are moderated by the proximity of the ocean and warm currents - cool summers and comparatively mild winters.

Tromso has a reputation for heavy snowfalls in winter.

Maps

Terrain

Loading map...

Airport Layout

Loading map...


Accidents & Serious Incidents at or in vicinity of ENTC

None on SKYbrary